GLOBALSTAR M069 1 31573U 07020C 26149.56711456 -.00000074 00000+0 17429-3 0 9992 2 31573 52.0042 304.8277 0002644 110.0790 323.5770 12.23470632876524 GLOBALSTAR M072 1 31574U 07020D 26149.09056286 -.00000066 00000+0 25244-3 0 9999 2 31574 51.9898 151.0859 0001368 276.6803 127.0162 11.91658402872701 GLOBALSTAR M066 1 32265U 07048C 26149.24647277 -.00000073 00000+0 18278-3 0 9997 2 32265 51.9569 112.2845 0005102 2.4062 135.9038 12.30389143857890 GLOBALSTAR M079 1 37188U 10054A 26149.55339465 -.00000082 00000+0 12071-3 0 9993 2 37188 52.0012 165.3942 0000254 323.1585 213.5286 12.62265924720192 GLOBALSTAR M074 1 37189U 10054B 26149.49784218 -.00000078 00000+0 14324-3 0 9995 2 37189 51.9986 164.8313 0000172 67.0343 97.1532 12.62268412720793 GLOBALSTAR M076 1 37190U 10054C 26149.52453154 -.00000105 00000+0 -41861-5 0 9993 2 37190 52.0011 164.9509 0000299 20.4977 145.5526 12.62261817720513 GLOBALSTAR M077 1 37191U 10054D 26149.55582639 -.00000041 00000+0 66917-3 0 9993 2 37191 51.9949 226.5859 0003030 139.7150 328.5442 11.67547469718968 GLOBALSTAR M075 1 37192U 10054E 26149.61675534 -.00000062 00000+0 23453-3 0 9999 2 37192 51.9932 206.7366 0000298 150.1472 14.6876 12.62267233719599 GLOBALSTAR M073 1 37193U 10054F 26149.37771260 -.00000093 00000+0 58898-4 0 9992 2 37193 52.0039 121.5474 0000516 8.3021 148.6443 12.62262151721552 GLOBALSTAR M083 1 37739U 11033A 26149.14913830 -.00000100 00000+0 22965-4 0 9997 2 37739 51.9863 70.4973 0000640 30.5150 108.5958 12.62262747690546 GLOBALSTAR M088 1 37740U 11033B 26149.49346448 -.00000080 00000+0 13403-3 0 9995 2 37740 52.0234 335.8342 0000891 97.5950 285.0485 12.62268367686139 GLOBALSTAR M091 1 37741U 11033C 26149.42971204 -.00000095 00000+0 50388-4 0 9993 2 37741 52.0009 299.0202 0000657 120.7770 273.2418 12.62263448686911 GLOBALSTAR M085 1 37742U 11033D 26149.50621632 -.00000086 00000+0 99257-4 0 9998 2 37742 52.0126 250.0633 0000409 153.6911 288.2593 12.62263502687433 GLOBALSTAR M081 1 37743U 11033E 26149.45264986 -.00000098 00000+0 29625-4 0 9993 2 37743 51.9958 252.6841 0000475 124.9086 313.0236 12.62264476687578 GLOBALSTAR M089 1 37744U 11033F 26149.58643203 -.00000064 00000+0 22231-3 0 9999 2 37744 51.9913 206.4399 0000491 111.4543 35.4089 12.62266712688434 GLOBALSTAR M084 1 38040U 11080A 26149.28838483 -.00000107 00000+0 -18616-4 0 9996 2 38040 52.0015 74.8153 0000852 56.2402 115.5433 12.62267271666378 GLOBALSTAR M080 1 38041U 11080B 26149.25837536 -.00000110 00000+0 -33341-4 0 9998 2 38041 52.0062 76.6182 0000118 80.8548 84.4359 12.62269084666490 GLOBALSTAR M082 1 38042U 11080C 26149.11518553 -.00000091 00000+0 74013-4 0 9997 2 38042 52.0095 32.5534 0000455 78.3255 86.1015 12.62269554667187 GLOBALSTAR M092 1 38043U 11080D 26149.40620859 -.00000115 00000+0 -62416-4 0 9995 2 38043 52.0071 122.0640 0000308 40.7871 125.8269 12.62266809665673 GLOBALSTAR M090 1 38044U 11080E 26149.58210726 -.00000077 00000+0 14905-3 0 9998 2 38044 52.0144 25.0824 0000713 63.9236 302.2781 12.62268741667368 GLOBALSTAR M086 1 38045U 11080F 26149.16642147 -.00000075 00000+0 15979-3 0 9999 2 38045 51.9919 26.3086 0001496 32.8689 143.1619 12.62286394667251 GLOBALSTAR M097 1 39072U 13005A 26149.55435409 -.00000107 00000+0 -15819-4 0 9994 2 39072 52.0056 300.0541 0000579 111.0395 249.0534 12.62251263614553 GLOBALSTAR M093 1 39073U 13005B 26149.52782087 -.00000099 00000+0 29253-4 0 9995 2 39073 52.0117 293.4757 0000433 102.8448 257.2468 12.62265360614507 GLOBALSTAR M094 1 39074U 13005C 26149.52777293 -.00000070 00000+0 18855-3 0 9993 2 39074 51.9943 207.6126 0000113 203.4517 156.6344 12.62268281616119 GLOBALSTAR M096 1 39075U 13005D 26149.46200994 -.00000089 00000+0 79931-4 0 9999 2 39075 52.0076 256.5987 0000424 140.0986 219.9912 12.62265003615020 GLOBALSTAR M078 1 39076U 13005E 26149.51413356 -.00000172 00000+0 -37842-3 0 9992 2 39076 51.9897 340.4735 0000721 172.0765 188.0113 12.62259561613652 GLOBALSTAR M095 1 39077U 13005F 26149.54092687 -.00000091 00000+0 71570-4 0 9992 2 39077 52.0098 337.9703 0000451 109.9625 250.1290 12.62263161613511 GLOBALSTAR M087 1 52888U 22064A 26149.23751964 -.00000104 00000+0 -25017-5 0 9990 2 52888 51.9976 120.1430 0000334 343.6657 16.4199 12.62268885188741